Location: Rumah Dana
(3.1167°N, 113.0167°E)
Time: 12:49:05
(UTC+00:00)

SJ-12 - Pass Details

Date: 03 August 2024
Orbit: 541 x 554 km, 97.8° (Epoch: 08 September)

Event Time Altitude Azimuth Distance (km) Brightness Sun altitude
Rises 21:38:54 0° 12° (NNE) 2,715 7.8 -12.2°
Reaches altitude 10° 21:41:02 10° 12° (NNE) 1,820 6.9 -11.7°
Maximum altitude 21:44:58 88° 96° (E) 553 3.8 -10.8°
Drops below altitude 10° 21:48:54 10° 191° (S) 1,815 6.2 -9.8°
Sets 21:51:00 0° 191° (S) 2,706 7.1 -9.3°
